Racecast

Roma Lucarelli

Temperance Bedford (MI) · 12 · SECMI D1MONROE · Compare head to head

Athlete rating 127.7 2016 TF season
Best race 129.2 TF
Races 57
Seasons 5 2012 — 2016

RankedNation #5498·MI #224·MI D1 #159·SEC #24·Team #4 ?

Speed rating — all races

Cross Country

XC speed rating

2015 XC 117.7

Temperance Bedford (MI) · Grade 12

Date Meet Event Result Place Rating Difficulty PR/SR Flags
2015-10-22 Hudson Mills Metropark - OFFICIAL 5000m 20:17.1 8th · 2nd on team 120.9 -0.006 SR CSR RSR
2015-10-17 Hudson Mills Metropark - OFFICIAL 5000m 20:20 27th · 2nd on team 120.3 -0.006 SR CSR RSR
2015-10-03 Pearson's Metro Park 5000m 21:09.5 4th · 4th on team 116.8 +0.001 SR CSR RSR
2015-09-29 Indian Creek OFFICIAL 5000m 21:55 12th · 1st on team 112.9 +0.004 ★CR SR CSR RSR

2014 XC 120.2

Temperance Bedford (MI) · Grade 11

Date Meet Event Result Place Rating Difficulty PR/SR Flags
2014-11-01 Michigan International Speedway (MIS) 5000m 20:58.2 203rd · 1st on team 118.1 -0.006 CSR
2014-10-25 Lake Erie Metro Park OFFICIAL 5000m 20:40.2 13th · 1st on team 120.9 +0.007 CSR
2014-10-04 Portage West MS 5000m 20:05 62nd · 1st on team 122.3 -0.003 SR CSR RSR
2014-09-23 Huron Meadows Metropark OFFICIAL 5000m 20:24 14th · 1st on team 121.9 -0.004 ★CR CSR RSR
2014-09-20 Ella Sharp Park OFFICIAL 5000m 20:22.8 34th · 1st on team 121.2 -0.001 CSR RSR
2014-09-09 Hudson Mills Metropark - OFFICIAL 5000m 21:25.2 28th · 3rd on team 115.2 -0.006 CSR
2014-09-06 Hedges Boyer Park 5000m 20:14.3 69th · 1st on team 120.9 -0.003 ★CR SR CSR RSR
2014-08-28 Heritage Park (Adrian) OFFICIAL 5000m 20:57.1 2nd · 1st on team 120.8 +0.035 ★CR SR CSR RSR

2013 XC 121.1

Temperance Bedford (MI) · Grade 10

Date Meet Event Result Place Rating Difficulty PR/SR Flags
2013-11-02 Michigan International Speedway (MIS) 5000m 20:03.2 135th · 2nd on team 122.8 -0.006 ★CR CSR
2013-10-26 Lake Erie Metro Park OFFICIAL 5000m 19:46.9 13th · 1st on team 126.6 +0.007 ★CR CSR
2013-10-17 Hudson Mills Metropark - OFFICIAL 5000m 20:11.5 13th · 2nd on team 120.7 -0.006 ★CR CSR
2013-10-05 Portage West MS 5000m 19:36 35th · 1st on team 126.8 -0.003 ★PR ★CR R SR CSR RSR
2013-09-28 Pearson's Metro Park 5000m 20:04.7 17th · 2nd on team 124.1 +0.001 ★CR CSR RSR
2013-09-21 Ella Sharp Park OFFICIAL 5000m 20:01.5 27th · 1st on team 122.6 -0.001 PR ★CR SR CSR
2013-09-13 Forest Akers East Golf Course 5000m 20:09 39th · 2nd on team 123.2 +0.019 PR ★CR SR CSR RSR
2013-09-10 Pioneer HS 5000m 23:56.5 64th · 2nd on team 105.3 +0.018 ★CR CSR
2013-09-07 Hedges Boyer Park 5000m 20:56.3 66th · 1st on team 119.1 -0.003 CR SR CSR
2013-08-24 Island Lake Recreation Area OFFICIAL 5000m 21:07 3rd · 1st on team 120.2 +0.016 ★CR SR CSR RSR

2012 XC 118.9

Temperance Bedford (MI) · Grade 9

Date Meet Event Result Place Rating Difficulty PR/SR Flags
2012-11-03 Michigan International Speedway (MIS) 5000m 20:13.1 171st · 2nd on team 120.7 -0.006 PR CR SR CSR
2012-10-27 Lake Erie Metro Park OFFICIAL 5000m 21:05.9 22nd · 6th on team 118.2 +0.007 CR CSR
2012-10-18 Hudson Mills Metropark - OFFICIAL 5000m 20:24.1 13th · 3rd on team 121.4 -0.006 PR CR R SR CSR RSR
2012-10-06 Portage West MS 5000m 20:25.8 10th · 1st on team 119.6 -0.003 PR CR R SR CSR RSR
2012-08-25 Island Lake Recreation Area OFFICIAL 5000m 22:04 16th · 6th on team 114.6 +0.016 PR CR R SR CSR RSR

Track & Field

TF speed rating

2016 TF 122.4

Temperance Bedford (MI) · Grade 12

Date Meet Event Result Place Rating Difficulty PR/SR Flags
2016-05-20 MHSAA LP Regional 03-1 @ Saline 800m 2:26.1 10th · 1st on team 125.1 -0.033
2016-05-13 SEC Red Division Finals 800m 2:25.61 5th · 1st on team 127.8 -0.021 RSR
2016-05-13 SEC Red Division Finals 200m 28.91 19th · 3rd on team -0.021
2016-05-06 Clay Eagle Invitational 400m 1:03.79 2nd · 2nd on team -0.032
2016-05-06 Clay Eagle Invitational 800m 2:33.45 1st · 1st on team 119.2 -0.032
2016-05-03 SEC Tri: Huron/Skyline @ Bedford 800m 2:31.75 2nd · 1st on team 120.7 -0.026
2016-04-26 Bedford @ Monroe 800m 2:36.3 2nd · 1st on team 118.4 -0.022
2016-04-26 Bedford @ Monroe 400m 1:02.94 2nd · 2nd on team -0.022 ★PR SR
2016-04-26 Bedford @ Monroe 200m 27.74 3rd · 2nd on team -0.022 ★PR SR
2016-04-23 Whitmore Lake HS Invite 800m 2:25.33 4th · 1st on team 127.7 -0.016 SR RSR
2016-04-19 Saline @ Bedford 800m 2:27 1st · 1st on team 125.8 -0.026 SR RSR
2016-04-14 Springfield Invitational 800m 2:34.3 3rd · 1st on team 120.1 -0.020 SR
2016-04-14 Springfield Invitational 1600m 5:45 2nd · 1st on team 120.8 -0.020 SR
2016-04-12 SEC: Bedford @ Pioneer 1600m 5:45.24 3rd · 1st on team 121.3 -0.017 SR RSR
2016-04-12 SEC: Bedford @ Pioneer 800m 2:35 2nd · 1st on team 120.1 -0.017 SR

2015 TF 123.8

Temperance Bedford (MI) · Grade 11

Date Meet Event Result Place Rating Difficulty PR/SR Flags
2015-05-15 MHSAA LP Regional 03-1 @ Saline 800m 2:23 3rd · 1st on team 128.7 -0.033 ★PR SR
2015-05-07 SEC: Red Division Finals 800m 2:23.58 3rd · 1st on team 129.2 -0.022 PR ★R SR RSR
2015-04-25 Whitmore Lake HS Invite 800m 2:26.98 1st · 1st on team 126.9 -0.016 SR RSR
2015-04-21 SEC: Bedford @ Pioneer 800m 2:42.03 4th · 1st on team 116.2 -0.017
2015-04-21 SEC: Bedford @ Pioneer 400m 1:04.83 4th · 1st on team -0.017 SR
2015-04-16 Springfield Invitational 800m 2:37.37 1st · 1st on team 117.9 -0.020 SR RSR

2014 TF 122.1

Temperance Bedford (MI) · Grade 10

Date Meet Event Result Place Rating Difficulty PR/SR Flags
2014-05-09 SEC Championships 800m 2:25.07 6th · 1st on team 128.5 -0.021 PR R SR RSR
2014-05-06 Saline Quad 800m 2:31.68 6th · 1st on team 120.7 -0.033
2014-05-06 Saline Quad 400m 1:03.07 6th · 2nd on team -0.033 PR SR
2014-04-17 Springfield Invitational 800m 2:29.34 1st · 1st on team 123.9 -0.020 RSR
2014-04-11 Whitmer Golden W Invitational 800m 2:27.08 1st · 1st on team 123.7 -0.034 PR SR RSR
2014-04-04 Knight Warm-Up 800m 2:41.6 3rd · 1st on team 113.8 -0.033 SR RSR

2013 TF 120.5

Temperance Bedford (MI) · Grade 9

Date Meet Event Result Place Rating Difficulty PR/SR Flags
2013-05-10 Siena Heights Invitational 1600m 5:33.07 9th · 2nd on team 124.2 -0.029 ★PR R SR RSR
2013-04-23 Pioneer vs. Bedford 800m 2:39.3 2nd · 1st on team 116.8 -0.017 PR SR RSR
2013-04-23 Pioneer vs. Bedford 400m 1:05.35 4th · 2nd on team -0.017 PR SR